Regional Weather Roundup
Issued by NWS Midland/Odessa, TX

Home | Current Version | Previous Version | Text Only | Print | Product List | Glossary On
Versions: 1 2 3 4 5 6 7 8 9 10 11 12 13 14 15 16 17 18 19 20 21 22 23 24 25 26 27 28 29 30 31 32 33 34 35 36 37 38 39 40 41 42 43 44 45 46 47 48 49 50
000
ASUS44 KMAF 261510
RWRMAF
MIDLAND AREA WEATHER ROUNDUP
NATIONAL WEATHER SERVICE MIDLAND TX
900 AM CST FRI DEC 26 2014

...IN SOUTHWEST TEXAS AND SOUTHEAST NEW MEXICO...

CITY           SKY/WX    TMP DP  RH WIND       PRES   REMARKS
ALPINE         SUNNY     57  23  27 SW22G32   29.93S
ANDREWS        FAIR      43  32  66 SW9       29.83R WCI  37
ARTESIA        MOSUNNY   37  25  60 CALM      29.85R
BIG SPRING     SUNNY     47  38  70 S16       29.87R
CARLSBAD       MOSUNNY   37  28  70 W5        29.83R WCI  33
DRYDEN           N/A     43  41  93 E5        29.91R
FORT STOCKTON  SUNNY     43  30  60 S6        29.85R WCI  39
GUAD PASS      NOT AVBL
HOBBS          SUNNY     37  32  81 S8        29.83R WCI  31
MARFA          SUNNY     43  21  42 S7        29.93R WCI  39
MIDLAND AIRPK  SUNNY     47  36  67 S9        29.84R
MIDLAND INTL   SUNNY     45  36  70 S9        29.83R
ODESSA         SUNNY     45  33  63 S10       29.83R WCI  40
PECOS          SUNNY     35  29  79 N3        29.83R
PRESIDIO       FAIR      58  26  29 CALM      29.89R
SEMINOLE       SUNNY     34  31  88 CALM      29.84R
SNYDER         SUNNY     45  39  78 S14       29.86R WCI  39
WINK           SUNNY     42  31  64 CALM      29.83R
$$
...OTHER STATIONS IN TEXAS...

CITY           SKY/WX    TMP DP  RH WIND       PRES   REMARKS
ABILENE        MOSUNNY   53  45  74 S17G28    29.86R
AMARILLO       CLOUDY    28  25  88 N17       29.86R WCI  16
AUSTIN         CLOUDY    59  57  93 S8        29.95S
BROWNSVILLE    MOSUNNY   68  64  87 S13       29.96R
CORPUS CHRISTI CLOUDY    66  63  90 SE10      29.95S
DALLAS FTW     CLOUDY    55  49  80 SE9       29.94R
DEL RIO        CLOUDY    51  48  89 SE6       29.93R
EL PASO        RAIN      38  33  82 NW9G20    29.91R WCI  31
HOUSTON INT    PTSUNNY   66  60  81 SE9       30.02S
LUBBOCK        SUNNY     42  32  67 S6        29.81R WCI  38
SAN ANGELO     MOSUNNY   52  46  80 SW10      29.88R
SAN ANTONIO    CLOUDY    59  55  87 SE7       29.96R
WACO           CLOUDY    56  53  90 SE9       29.95S
WICHITA FALLS  NOT AVBL
$$
...OTHER LOCATIONS IN NEW MEXICO...

CITY           SKY/WX    TMP DP  RH WIND       PRES   REMARKS
ALAMAGORDO     MOCLDY    39  34  81 SE14      29.86R WCI  31
ALBUQUERQUE    FOG       30  29  96 S3        29.81R VSB 1/8
CANNON AFB     MOCLDY    27  24  87 N15       29.84S WCI  15
CLOVIS         CLOUDY    27  21  80 N20       29.86R WCI  13
HOLLOMAN AFB   MOCLDY    39  36  88 S12       29.86R WCI  32
ROSWELL        CLOUDY    40  26  57 S3        29.82R
RUIDOSO        NOT AVBL
SANTA FE       MOCLDY    25  22  88 CALM      29.76R
TRUTH OR CONSE PTCLDY    35  18  49 S7        29.83R WCI  29
TUCUMCARI      LGT SNOW  29  26  89 NE9       29.86S VSB 1   WCI  20
$$


USA.gov is the U.S. government's official web portal to all federal, state and local government web resources and services.